Location: Derby
(52.9213°N, 1.4761°W)
Time: 16:39:05
(UTC+01:00)

Vanguard 1 - Pass Details

Date: 21 May 2025
Orbit: 649 x 3822 km, 34.3° (Epoch: 14 June)

Event Time Altitude Azimuth Distance (km) Brightness Sun altitude
Rises 18:39:04 0° 233° (SW) 7,526 15.3 19.6°
Reaches altitude 10° 18:45:32 10° 225° (SW) 6,095 14.7 18.6°
Maximum altitude 18:59:09 30° 175° (S) 3,508 12.9 16.6°
Drops below altitude 10° 19:07:53 10° 120° (ESE) 3,846 12.6 15.3°
Sets 19:10:52 0° 108° (ESE) 4,463 12.8 14.9°
